Year,Month,Day,Hour,Minute,Value (Times are PST for temperature in C)
2014,11,02,00,00,4.40
2014,11,02,00,01,4.40
2014,11,02,00,02,4.40
2014,11,02,00,03,4.40
2014,11,02,00,04,4.40
2014,11,02,00,05,4.40
2014,11,02,00,06,4.40
2014,11,02,00,07,4.40
2014,11,02,00,08,4.40
2014,11,02,00,09,4.40
2014,11,02,00,10,4.40
2014,11,02,00,11,4.30
2014,11,02,00,12,4.30
2014,11,02,00,13,4.40
2014,11,02,00,14,4.40
2014,11,02,00,15,4.40
2014,11,02,00,16,4.40
2014,11,02,00,17,4.40
2014,11,02,00,18,4.40
2014,11,02,00,19,4.40
2014,11,02,00,20,4.40
2014,11,02,00,21,4.40
2014,11,02,00,22,4.40
2014,11,02,00,23,4.40
2014,11,02,00,24,4.40
2014,11,02,00,25,4.40
2014,11,02,00,26,4.40
2014,11,02,00,27,4.40
2014,11,02,00,28,4.40
2014,11,02,00,29,4.30
2014,11,02,00,30,4.30
2014,11,02,00,31,4.30
2014,11,02,00,32,4.30
2014,11,02,00,33,4.30
2014,11,02,00,34,4.30
2014,11,02,00,35,4.30
2014,11,02,00,36,4.30
2014,11,02,00,37,4.30
2014,11,02,00,38,4.30
2014,11,02,00,39,4.30
2014,11,02,00,40,4.30
2014,11,02,00,41,4.30
2014,11,02,00,42,4.30
2014,11,02,00,43,4.30
2014,11,02,00,44,4.30
2014,11,02,00,45,4.30
2014,11,02,00,46,4.30
2014,11,02,00,47,4.30
2014,11,02,00,48,4.30
2014,11,02,00,49,4.30
2014,11,02,00,50,4.30
2014,11,02,00,51,4.30
2014,11,02,00,52,4.30
2014,11,02,00,53,4.30
2014,11,02,00,54,4.30
2014,11,02,00,55,4.30
2014,11,02,00,56,4.30
2014,11,02,00,57,4.30
2014,11,02,00,58,4.30
2014,11,02,00,59,4.30
2014,11,02,01,00,4.30
2014,11,02,01,01,4.30
2014,11,02,01,02,4.30
2014,11,02,01,03,4.30
2014,11,02,01,04,4.30
2014,11,02,01,05,4.30
2014,11,02,01,06,4.30
2014,11,02,01,07,4.30
2014,11,02,01,08,4.30
2014,11,02,01,09,4.30
2014,11,02,01,10,4.30
2014,11,02,01,11,4.30
2014,11,02,01,12,4.30
2014,11,02,01,13,4.30
2014,11,02,01,14,4.30
2014,11,02,01,15,4.30
2014,11,02,01,16,4.30
2014,11,02,01,17,4.20
2014,11,02,01,18,4.20
2014,11,02,01,19,4.20
2014,11,02,01,20,4.20
2014,11,02,01,21,4.20
2014,11,02,01,22,4.20
2014,11,02,01,23,4.20
2014,11,02,01,24,4.20
2014,11,02,01,25,4.20
2014,11,02,01,26,4.20
2014,11,02,01,27,4.20
2014,11,02,01,28,4.20
2014,11,02,01,29,4.20
2014,11,02,01,30,4.20
2014,11,02,01,31,4.20
2014,11,02,01,32,4.20
2014,11,02,01,33,4.20
2014,11,02,01,34,4.20
2014,11,02,01,35,4.20
2014,11,02,01,36,4.20
2014,11,02,01,37,4.20
2014,11,02,01,38,4.10
2014,11,02,01,39,4.10
2014,11,02,01,40,4.10
2014,11,02,01,41,4.10
2014,11,02,01,42,4.10
2014,11,02,01,43,4.10
2014,11,02,01,44,4.10
2014,11,02,01,45,4.10
2014,11,02,01,46,4.10
2014,11,02,01,47,4.10
2014,11,02,01,48,4.10
2014,11,02,01,49,4.10
2014,11,02,01,50,4.10
2014,11,02,01,51,4.10
2014,11,02,01,52,4.10
2014,11,02,01,53,4.10
2014,11,02,01,54,4.10
2014,11,02,01,55,4.10
2014,11,02,01,56,4.10
2014,11,02,01,57,4.10
2014,11,02,01,58,4.00
2014,11,02,01,59,4.10
2014,11,02,02,16,4.60
2014,11,02,02,17,4.70
2014,11,02,02,18,4.70
2014,11,02,02,19,4.70
2014,11,02,02,20,4.70
2014,11,02,02,21,4.70
2014,11,02,02,22,4.70
2014,11,02,02,23,4.70
2014,11,02,02,24,4.70
2014,11,02,02,25,4.70
2014,11,02,02,26,4.80
2014,11,02,02,27,4.80
2014,11,02,02,28,4.80
2014,11,02,02,29,4.80
2014,11,02,02,30,4.80
2014,11,02,02,31,4.80
2014,11,02,02,32,4.80
2014,11,02,02,33,4.80
2014,11,02,02,34,4.80
2014,11,02,02,35,4.80
2014,11,02,02,36,4.80
2014,11,02,02,37,4.80
2014,11,02,02,38,4.80
2014,11,02,02,39,4.80
2014,11,02,02,40,4.80
2014,11,02,02,41,4.80
2014,11,02,02,42,4.80
2014,11,02,02,43,4.80
2014,11,02,02,44,4.80
2014,11,02,02,45,4.80
2014,11,02,02,46,4.80
2014,11,02,02,47,4.90
2014,11,02,02,48,4.90
2014,11,02,02,49,4.90
2014,11,02,02,50,4.90
2014,11,02,02,51,4.90
2014,11,02,02,52,4.90
2014,11,02,02,53,4.90
2014,11,02,02,54,4.90
2014,11,02,02,55,5.00
2014,11,02,02,56,5.00
2014,11,02,02,57,5.00
2014,11,02,02,58,5.00
2014,11,02,02,59,5.10
2014,11,02,03,00,5.10
2014,11,02,03,01,5.10
2014,11,02,03,02,5.10
2014,11,02,03,03,5.10
2014,11,02,03,04,5.20
2014,11,02,03,05,5.20
2014,11,02,03,06,5.20
2014,11,02,03,07,5.20
2014,11,02,03,08,5.20
2014,11,02,03,09,5.20
2014,11,02,03,10,5.20
2014,11,02,03,11,5.20
2014,11,02,03,12,5.20
2014,11,02,03,13,5.20
2014,11,02,03,14,5.20
2014,11,02,03,15,5.20
2014,11,02,03,16,5.20
2014,11,02,03,17,5.20
2014,11,02,03,18,5.20
2014,11,02,03,19,5.20
2014,11,02,03,20,5.20
2014,11,02,03,21,5.20
2014,11,02,03,22,5.20
2014,11,02,03,23,5.20
2014,11,02,03,24,5.20
2014,11,02,03,25,5.20
2014,11,02,03,26,5.20
2014,11,02,03,27,5.20
2014,11,02,03,28,5.20
2014,11,02,03,29,5.20
2014,11,02,03,30,5.20
2014,11,02,03,31,5.20
2014,11,02,03,32,5.20
2014,11,02,03,33,5.20
2014,11,02,03,34,5.20
2014,11,02,03,35,5.20
2014,11,02,03,36,5.20
2014,11,02,03,37,5.20
2014,11,02,03,38,5.20
2014,11,02,03,39,5.20
2014,11,02,03,40,5.20
2014,11,02,03,41,5.20
2014,11,02,03,42,5.20
2014,11,02,03,43,5.30
2014,11,02,03,44,5.30
2014,11,02,03,45,5.30
2014,11,02,03,46,5.30
2014,11,02,03,47,5.30
2014,11,02,03,48,5.30
2014,11,02,03,49,5.30
2014,11,02,03,50,5.30
2014,11,02,03,51,5.30
2014,11,02,03,52,5.30
2014,11,02,03,53,5.30
2014,11,02,03,54,5.30
2014,11,02,03,55,5.40
2014,11,02,03,56,5.30
2014,11,02,03,57,5.40
2014,11,02,03,58,5.40
2014,11,02,03,59,5.40
2014,11,02,04,00,5.40
2014,11,02,04,01,5.40
2014,11,02,04,02,5.40
2014,11,02,04,03,5.40
2014,11,02,04,04,5.40
2014,11,02,04,05,5.40
2014,11,02,04,06,5.40
2014,11,02,04,07,5.40
2014,11,02,04,08,5.40
2014,11,02,04,09,5.50
2014,11,02,04,10,5.50
2014,11,02,04,11,5.50
2014,11,02,04,12,5.50
2014,11,02,04,13,5.50
2014,11,02,04,14,5.50
2014,11,02,04,15,5.50
2014,11,02,04,16,5.50
2014,11,02,04,17,5.50
2014,11,02,04,18,5.60
2014,11,02,04,19,5.60
2014,11,02,04,20,5.60
2014,11,02,04,21,5.60
2014,11,02,04,22,5.60
2014,11,02,04,23,5.60
2014,11,02,04,24,5.60
2014,11,02,04,25,5.60
2014,11,02,04,26,5.60
2014,11,02,04,27,5.70
2014,11,02,04,28,5.70
2014,11,02,04,29,5.70
2014,11,02,04,30,5.70
2014,11,02,04,31,5.70
2014,11,02,04,32,5.70
2014,11,02,04,33,5.70
2014,11,02,04,34,5.70
2014,11,02,04,35,5.70
2014,11,02,04,36,5.70
2014,11,02,04,37,5.80
2014,11,02,04,38,5.80
2014,11,02,04,39,5.80
2014,11,02,04,40,5.80
2014,11,02,04,41,5.80
2014,11,02,04,42,5.80
2014,11,02,04,43,5.80
2014,11,02,04,44,5.90
2014,11,02,04,45,5.90
2014,11,02,04,46,5.90
2014,11,02,04,47,5.90
2014,11,02,04,48,5.90
2014,11,02,04,49,5.90
2014,11,02,04,50,5.90
2014,11,02,04,51,6.00
2014,11,02,04,52,6.00
2014,11,02,04,53,6.00
2014,11,02,04,54,6.00
2014,11,02,04,55,6.00
2014,11,02,04,56,6.10
2014,11,02,04,57,6.10
2014,11,02,04,58,6.10
2014,11,02,04,59,6.10
2014,11,02,05,00,6.10
2014,11,02,05,01,6.10
2014,11,02,05,02,6.10
2014,11,02,05,03,6.10
2014,11,02,05,04,6.10
2014,11,02,05,05,6.10
2014,11,02,05,06,6.20
2014,11,02,05,07,6.20
2014,11,02,05,08,6.20
2014,11,02,05,09,6.20
2014,11,02,05,10,6.20
2014,11,02,05,11,6.20
2014,11,02,05,12,6.20
2014,11,02,05,13,6.20
2014,11,02,05,14,6.20
2014,11,02,05,15,6.20
2014,11,02,05,16,6.20
2014,11,02,05,17,6.20
2014,11,02,05,18,6.20
2014,11,02,05,19,6.20
2014,11,02,05,20,6.20
2014,11,02,05,21,6.20
2014,11,02,05,22,6.20
2014,11,02,05,23,6.20
2014,11,02,05,24,6.20
2014,11,02,05,25,6.20
2014,11,02,05,26,6.20
2014,11,02,05,27,6.20
2014,11,02,05,28,6.20
2014,11,02,05,29,6.20
2014,11,02,05,30,6.20
2014,11,02,05,31,6.20
2014,11,02,05,32,6.30
2014,11,02,05,33,6.30
2014,11,02,05,34,6.30
2014,11,02,05,35,6.30
2014,11,02,05,36,6.30
2014,11,02,05,37,6.30
2014,11,02,05,38,6.30
2014,11,02,05,39,6.30
2014,11,02,05,40,6.30
2014,11,02,05,41,6.20
2014,11,02,05,42,6.20
2014,11,02,05,43,6.20
2014,11,02,05,44,6.20
2014,11,02,05,45,6.20
2014,11,02,05,46,6.20
2014,11,02,05,47,6.20
2014,11,02,05,48,6.20
2014,11,02,05,49,6.20
2014,11,02,05,50,6.20
2014,11,02,05,51,6.20
2014,11,02,05,52,6.20
2014,11,02,05,53,6.20
2014,11,02,05,54,6.10
2014,11,02,05,55,6.10
2014,11,02,05,56,6.10
2014,11,02,05,57,6.10
2014,11,02,05,58,6.10
2014,11,02,05,59,6.10
2014,11,02,06,00,6.10
2014,11,02,06,01,6.10
2014,11,02,06,02,6.10
2014,11,02,06,03,6.10
2014,11,02,06,04,6.10
2014,11,02,06,05,6.10
2014,11,02,06,06,6.10
2014,11,02,06,07,6.10
2014,11,02,06,08,6.10
2014,11,02,06,09,6.00
2014,11,02,06,10,6.00
2014,11,02,06,11,6.00
2014,11,02,06,12,6.00
2014,11,02,06,13,6.00
2014,11,02,06,14,6.00
2014,11,02,06,15,5.90
2014,11,02,06,16,5.90
2014,11,02,06,17,5.90
2014,11,02,06,18,5.90
2014,11,02,06,19,5.90
2014,11,02,06,20,5.90
2014,11,02,06,21,5.90
2014,11,02,06,22,5.90
2014,11,02,06,23,5.90
2014,11,02,06,24,5.90
2014,11,02,06,25,5.90
2014,11,02,06,26,5.90
2014,11,02,06,27,5.90
2014,11,02,06,28,5.90
2014,11,02,06,29,5.80
2014,11,02,06,30,5.80
2014,11,02,06,31,5.80
2014,11,02,06,32,5.80
2014,11,02,06,33,5.80
2014,11,02,06,34,5.80
2014,11,02,06,35,5.80
2014,11,02,06,36,5.80
2014,11,02,06,37,5.80
2014,11,02,06,38,5.80
2014,11,02,06,39,5.80
2014,11,02,06,40,5.80
2014,11,02,06,41,5.80
2014,11,02,06,42,5.80
2014,11,02,06,43,5.80
2014,11,02,06,44,5.80
2014,11,02,06,45,5.80
2014,11,02,06,46,5.80
2014,11,02,06,47,5.80
2014,11,02,06,48,5.80
2014,11,02,06,49,5.80
2014,11,02,06,50,5.80
2014,11,02,06,51,5.80
2014,11,02,06,52,5.80
2014,11,02,06,53,5.80
2014,11,02,06,54,5.80
2014,11,02,06,55,5.80
2014,11,02,06,56,5.80
2014,11,02,06,57,5.80
2014,11,02,06,58,5.80
2014,11,02,06,59,5.80
2014,11,02,07,00,5.80
2014,11,02,07,01,5.80
2014,11,02,07,02,5.80
2014,11,02,07,03,5.70
2014,11,02,07,04,5.70
2014,11,02,07,05,5.70
2014,11,02,07,06,5.70
2014,11,02,07,07,5.70
2014,11,02,07,08,5.70
2014,11,02,07,09,5.70
2014,11,02,07,10,5.70
2014,11,02,07,11,5.70
2014,11,02,07,12,5.70
2014,11,02,07,13,5.70
2014,11,02,07,14,5.70
2014,11,02,07,15,5.70
2014,11,02,07,16,5.70
2014,11,02,07,17,5.70
2014,11,02,07,18,5.80
2014,11,02,07,19,5.80
2014,11,02,07,20,5.80
2014,11,02,07,21,5.80
2014,11,02,07,22,5.80
2014,11,02,07,23,5.80
2014,11,02,07,24,5.80
2014,11,02,07,25,5.80
2014,11,02,07,26,5.80
2014,11,02,07,27,5.80
2014,11,02,07,28,5.80
2014,11,02,07,29,5.80
2014,11,02,07,30,5.80
2014,11,02,07,31,5.80
2014,11,02,07,32,5.80
2014,11,02,07,33,5.90
2014,11,02,07,34,5.90
2014,11,02,07,35,5.90
2014,11,02,07,36,5.90
2014,11,02,07,37,5.90
2014,11,02,07,38,6.00
2014,11,02,07,39,6.00
2014,11,02,07,40,6.00
2014,11,02,07,41,6.10
2014,11,02,07,42,6.10
2014,11,02,07,43,6.10
2014,11,02,07,44,6.10
2014,11,02,07,45,6.10
2014,11,02,07,46,6.10
2014,11,02,07,47,6.10
2014,11,02,07,48,6.10
2014,11,02,07,49,6.10
2014,11,02,07,50,6.10
2014,11,02,07,51,6.10
2014,11,02,07,52,6.20
2014,11,02,07,53,6.20
2014,11,02,07,54,6.20
2014,11,02,07,55,6.20
2014,11,02,07,56,6.20
2014,11,02,07,57,6.20
2014,11,02,07,58,6.20
2014,11,02,07,59,6.20
2014,11,02,08,00,6.30
2014,11,02,08,01,6.30
2014,11,02,08,02,6.30
2014,11,02,08,03,6.30
2014,11,02,08,04,6.40
2014,11,02,08,05,6.40
2014,11,02,08,06,6.40
2014,11,02,08,07,6.40
2014,11,02,08,08,6.40
2014,11,02,08,09,6.50
2014,11,02,08,10,6.50
2014,11,02,08,11,6.50
2014,11,02,08,12,6.60
2014,11,02,08,13,6.60
2014,11,02,08,14,6.60
2014,11,02,08,15,6.60
2014,11,02,08,16,6.60
2014,11,02,08,17,6.70
2014,11,02,08,18,6.70
2014,11,02,08,19,6.70
2014,11,02,08,20,6.70
2014,11,02,08,21,6.80
2014,11,02,08,22,6.80
2014,11,02,08,23,6.80
2014,11,02,08,24,6.80
2014,11,02,08,25,6.80
2014,11,02,08,26,6.90
2014,11,02,08,27,6.90
2014,11,02,08,28,6.90
2014,11,02,08,29,6.90
2014,11,02,08,30,6.90
2014,11,02,08,31,6.90
2014,11,02,08,32,7.00
2014,11,02,08,33,7.00
2014,11,02,08,34,7.00
2014,11,02,08,35,7.00
2014,11,02,08,36,7.10
2014,11,02,08,37,7.10
2014,11,02,08,38,7.10
2014,11,02,08,39,7.10
2014,11,02,08,40,7.10
2014,11,02,08,41,7.20
2014,11,02,08,42,7.20
2014,11,02,08,43,7.20
2014,11,02,08,44,7.20
2014,11,02,08,45,7.20
2014,11,02,08,46,7.20
2014,11,02,08,47,7.20
2014,11,02,08,48,7.30
2014,11,02,08,49,7.30
2014,11,02,08,50,7.30
2014,11,02,08,51,7.30
2014,11,02,08,52,7.30
2014,11,02,08,53,7.30
2014,11,02,08,54,7.40
2014,11,02,08,55,7.40
2014,11,02,08,56,7.40
2014,11,02,08,57,7.40
2014,11,02,08,58,7.40
2014,11,02,08,59,7.40
2014,11,02,09,00,7.50
2014,11,02,09,01,7.50
2014,11,02,09,02,7.50
2014,11,02,09,03,7.60
2014,11,02,09,04,7.60
2014,11,02,09,05,7.60
2014,11,02,09,06,7.60
2014,11,02,09,07,7.70
2014,11,02,09,08,7.70
2014,11,02,09,09,7.70
2014,11,02,09,10,7.70
2014,11,02,09,11,7.70
2014,11,02,09,12,7.80
2014,11,02,09,13,7.80
2014,11,02,09,14,7.80
2014,11,02,09,15,7.80
2014,11,02,09,16,7.90
2014,11,02,09,17,7.90
2014,11,02,09,18,7.90
2014,11,02,09,19,8.00
2014,11,02,09,20,8.00
2014,11,02,09,21,8.10
2014,11,02,09,22,8.10
2014,11,02,09,23,8.10
2014,11,02,09,24,8.20
2014,11,02,09,25,8.20
2014,11,02,09,26,8.20
2014,11,02,09,27,8.30
2014,11,02,09,28,8.30
2014,11,02,09,29,8.30
2014,11,02,09,30,8.40
2014,11,02,09,31,8.40
2014,11,02,09,32,8.40
2014,11,02,09,33,8.40
2014,11,02,09,34,8.40
2014,11,02,09,35,8.50
2014,11,02,09,36,8.50
2014,11,02,09,37,8.50
2014,11,02,09,38,8.60
2014,11,02,09,39,8.60
2014,11,02,09,40,8.60
2014,11,02,09,41,8.60
2014,11,02,09,42,8.60
2014,11,02,09,43,8.60
2014,11,02,09,44,8.60
2014,11,02,09,45,8.70
2014,11,02,09,46,8.70
2014,11,02,09,47,8.70
2014,11,02,09,48,8.70
2014,11,02,09,49,8.70
2014,11,02,09,50,8.70
2014,11,02,09,51,8.70
2014,11,02,09,52,8.70
2014,11,02,09,53,8.70
2014,11,02,09,54,8.70
2014,11,02,09,55,8.70
2014,11,02,09,56,8.80
2014,11,02,09,57,8.80
2014,11,02,09,58,8.80
2014,11,02,09,59,8.80
2014,11,02,10,00,8.80
2014,11,02,10,01,8.80
2014,11,02,10,02,8.80
2014,11,02,10,03,8.80
2014,11,02,10,04,8.80
2014,11,02,10,05,8.80
2014,11,02,10,06,8.90
2014,11,02,10,07,8.90
2014,11,02,10,08,8.90
2014,11,02,10,09,8.90
2014,11,02,10,10,8.90
2014,11,02,10,11,8.90
2014,11,02,10,12,9.00
2014,11,02,10,13,9.00
2014,11,02,10,14,9.00
2014,11,02,10,15,9.00
2014,11,02,10,16,9.00
2014,11,02,10,17,9.00
2014,11,02,10,18,9.00
2014,11,02,10,19,9.00
2014,11,02,10,20,9.00
2014,11,02,10,21,9.00
2014,11,02,10,22,9.00
2014,11,02,10,23,9.00
2014,11,02,10,24,9.00
2014,11,02,10,25,9.00
2014,11,02,10,26,9.00
2014,11,02,10,27,9.00
2014,11,02,10,28,9.00
2014,11,02,10,29,9.00
2014,11,02,10,30,9.00
2014,11,02,10,31,9.00
2014,11,02,10,32,9.00
2014,11,02,10,33,9.00
2014,11,02,10,34,9.00
2014,11,02,10,35,9.00
2014,11,02,10,36,9.00
2014,11,02,10,37,9.10
2014,11,02,10,38,9.10
2014,11,02,10,39,9.10
2014,11,02,10,40,9.10
2014,11,02,10,41,9.10
2014,11,02,10,42,9.10
2014,11,02,10,43,9.10
2014,11,02,10,44,9.10
2014,11,02,10,45,9.10
2014,11,02,10,46,9.10
2014,11,02,10,47,9.10
2014,11,02,10,48,9.10
2014,11,02,10,49,9.10
2014,11,02,10,50,9.10
2014,11,02,10,51,9.10
2014,11,02,10,52,9.10
2014,11,02,10,53,9.20
2014,11,02,10,54,9.20
2014,11,02,10,55,9.20
2014,11,02,10,56,9.20
2014,11,02,10,57,9.20
2014,11,02,10,58,9.20
2014,11,02,10,59,9.20
2014,11,02,11,00,9.20
2014,11,02,11,01,9.20
2014,11,02,11,02,9.20
2014,11,02,11,03,9.30
2014,11,02,11,04,9.30
2014,11,02,11,05,9.30
2014,11,02,11,06,9.30
2014,11,02,11,07,9.30
2014,11,02,11,08,9.30
2014,11,02,11,09,9.30
2014,11,02,11,10,9.30
2014,11,02,11,11,9.30
2014,11,02,11,12,9.30
2014,11,02,11,13,9.30
2014,11,02,11,14,9.30
2014,11,02,11,15,9.30
2014,11,02,11,16,9.30
2014,11,02,11,17,9.30
2014,11,02,11,18,9.40
2014,11,02,11,19,9.40
2014,11,02,11,20,9.40
2014,11,02,11,21,9.40
2014,11,02,11,22,9.40
2014,11,02,11,23,9.40
2014,11,02,11,24,9.40
2014,11,02,11,25,9.40
2014,11,02,11,26,9.40
2014,11,02,11,27,9.40
2014,11,02,11,28,9.40
2014,11,02,11,29,9.40
2014,11,02,11,30,9.40
2014,11,02,11,31,9.50
2014,11,02,11,32,9.50
2014,11,02,11,33,9.50
2014,11,02,11,34,9.50
2014,11,02,11,35,9.50
2014,11,02,11,36,9.50
2014,11,02,11,37,9.50
2014,11,02,11,38,9.50
2014,11,02,11,39,9.60
2014,11,02,11,40,9.60
2014,11,02,11,41,9.60
2014,11,02,11,42,9.60
2014,11,02,11,43,9.60
2014,11,02,11,44,9.60
2014,11,02,11,45,9.60
2014,11,02,11,46,9.60
2014,11,02,11,47,9.60
2014,11,02,11,48,9.60
2014,11,02,11,49,9.50
2014,11,02,11,50,9.50
2014,11,02,11,51,9.50
2014,11,02,11,52,9.50
2014,11,02,11,53,9.50
2014,11,02,11,54,9.50
2014,11,02,11,55,9.50
2014,11,02,11,56,9.50
2014,11,02,11,57,9.50
2014,11,02,11,58,9.50
2014,11,02,11,59,9.50
2014,11,02,12,00,9.50
2014,11,02,12,01,9.50
2014,11,02,12,02,9.60
2014,11,02,12,03,9.60
2014,11,02,12,04,9.60
2014,11,02,12,05,9.50
2014,11,02,12,06,9.60
2014,11,02,12,07,9.60
2014,11,02,12,08,9.60
2014,11,02,12,09,9.60
2014,11,02,12,10,9.60
2014,11,02,12,11,9.60
2014,11,02,12,12,9.60
2014,11,02,12,13,9.60
2014,11,02,12,14,9.60
2014,11,02,12,15,9.60
2014,11,02,12,16,9.60
2014,11,02,12,17,9.60
2014,11,02,12,18,9.60
2014,11,02,12,19,9.60
2014,11,02,12,20,9.60
2014,11,02,12,21,9.60
2014,11,02,12,22,9.60
2014,11,02,12,23,9.60
2014,11,02,12,24,9.60
2014,11,02,12,25,9.60
2014,11,02,12,26,9.60
2014,11,02,12,27,9.60
2014,11,02,12,28,9.60
2014,11,02,12,29,9.60
2014,11,02,12,30,9.60
2014,11,02,12,31,9.50
2014,11,02,12,32,9.60
2014,11,02,12,33,9.50
2014,11,02,12,34,9.50
2014,11,02,12,35,9.50
2014,11,02,12,36,9.50
2014,11,02,12,37,9.50
2014,11,02,12,38,9.50
2014,11,02,12,39,9.50
2014,11,02,12,40,9.50
2014,11,02,12,41,9.50
2014,11,02,12,42,9.50
2014,11,02,12,43,9.50
2014,11,02,12,44,9.50
2014,11,02,12,45,9.50
2014,11,02,12,46,9.50
2014,11,02,12,47,9.50
2014,11,02,12,48,9.50
2014,11,02,12,49,9.50
2014,11,02,12,50,9.40
2014,11,02,12,51,9.40
2014,11,02,12,52,9.40
2014,11,02,12,53,9.40
2014,11,02,12,54,9.40
2014,11,02,12,55,9.40
2014,11,02,12,56,9.40
2014,11,02,12,57,9.40
2014,11,02,12,58,9.40
2014,11,02,12,59,9.40
2014,11,02,13,00,9.40
2014,11,02,13,01,9.40
2014,11,02,13,02,9.40
2014,11,02,13,03,9.40
2014,11,02,13,04,9.40
2014,11,02,13,05,9.40
2014,11,02,13,06,9.40
2014,11,02,13,07,9.40
2014,11,02,13,08,9.40
2014,11,02,13,09,9.40
2014,11,02,13,10,9.40
2014,11,02,13,11,9.40
2014,11,02,13,12,9.40
2014,11,02,13,13,9.40
2014,11,02,13,14,9.40
2014,11,02,13,15,9.40
2014,11,02,13,16,9.40
2014,11,02,13,17,9.40
2014,11,02,13,18,9.40
2014,11,02,13,19,9.40
2014,11,02,13,20,9.40
2014,11,02,13,21,9.40
2014,11,02,13,22,9.40
2014,11,02,13,23,9.40
2014,11,02,13,24,9.40
2014,11,02,13,25,9.40
2014,11,02,13,26,9.40
2014,11,02,13,27,9.40
2014,11,02,13,28,9.40
2014,11,02,13,29,9.40
2014,11,02,13,30,9.40
2014,11,02,13,31,9.40
2014,11,02,13,32,9.40
2014,11,02,13,33,9.40
2014,11,02,13,34,9.40
2014,11,02,13,35,9.40
2014,11,02,13,36,9.40
2014,11,02,13,37,9.40
2014,11,02,13,38,9.40
2014,11,02,13,39,9.40
2014,11,02,13,40,9.50
2014,11,02,13,41,9.50
2014,11,02,13,42,9.50
2014,11,02,13,43,9.50
2014,11,02,13,44,9.50
2014,11,02,13,45,9.50
2014,11,02,13,46,9.50
2014,11,02,13,47,9.50
2014,11,02,13,48,9.50
2014,11,02,13,49,9.50
2014,11,02,13,50,9.50
2014,11,02,13,51,9.50
2014,11,02,13,52,9.60
2014,11,02,13,53,9.60
2014,11,02,13,54,9.60
2014,11,02,13,55,9.60
2014,11,02,13,56,9.60
2014,11,02,13,57,9.60
2014,11,02,13,58,9.60
2014,11,02,13,59,9.60
2014,11,02,14,00,9.60
2014,11,02,14,01,9.60
2014,11,02,14,02,9.60
2014,11,02,14,03,9.60
2014,11,02,14,04,9.60
2014,11,02,14,05,9.60
2014,11,02,14,06,9.60
2014,11,02,14,07,9.60
2014,11,02,14,08,9.60
2014,11,02,14,09,9.60
2014,11,02,14,10,9.60
2014,11,02,14,11,9.60
2014,11,02,14,12,9.60
2014,11,02,14,13,9.60
2014,11,02,14,14,9.70
2014,11,02,14,15,9.70
2014,11,02,14,16,9.70
2014,11,02,14,17,9.70
2014,11,02,14,18,9.70
2014,11,02,14,19,9.70
2014,11,02,14,20,9.80
2014,11,02,14,21,9.80
2014,11,02,14,22,9.80
2014,11,02,14,23,9.80
2014,11,02,14,24,9.80
2014,11,02,14,25,9.80
2014,11,02,14,26,9.80
2014,11,02,14,27,9.80
2014,11,02,14,28,9.90
2014,11,02,14,29,9.90
2014,11,02,14,30,9.90
2014,11,02,14,31,9.90
2014,11,02,14,32,9.90
2014,11,02,14,33,10.00
2014,11,02,14,34,10.00
2014,11,02,14,35,10.00
2014,11,02,14,36,10.00
2014,11,02,14,37,10.10
2014,11,02,14,38,10.10
2014,11,02,14,39,10.10
2014,11,02,14,40,10.10
2014,11,02,14,41,10.20
2014,11,02,14,42,10.20
2014,11,02,14,43,10.20
2014,11,02,14,44,10.20
2014,11,02,14,45,10.20
2014,11,02,14,46,10.20
2014,11,02,14,47,10.20
2014,11,02,14,48,10.20
2014,11,02,14,49,10.20
2014,11,02,14,50,10.20
2014,11,02,14,51,10.20
2014,11,02,14,52,10.20
2014,11,02,14,53,10.30
2014,11,02,14,54,10.30
2014,11,02,14,55,10.30
2014,11,02,14,56,10.30
2014,11,02,14,57,10.30
2014,11,02,14,58,10.30
2014,11,02,14,59,10.30
2014,11,02,15,00,10.30
2014,11,02,15,01,10.30
2014,11,02,15,02,10.30
2014,11,02,15,03,10.30
2014,11,02,15,04,10.40
2014,11,02,15,05,10.40
2014,11,02,15,06,10.40
2014,11,02,15,07,10.40
2014,11,02,15,08,10.40
2014,11,02,15,09,10.40
2014,11,02,15,10,10.40
2014,11,02,15,11,10.50
2014,11,02,15,12,10.40
2014,11,02,15,13,10.50
2014,11,02,15,14,10.40
2014,11,02,15,15,10.40
2014,11,02,15,16,10.40
2014,11,02,15,17,10.40
2014,11,02,15,18,10.40
2014,11,02,15,19,10.40
2014,11,02,15,20,10.50
2014,11,02,15,21,10.50
2014,11,02,15,22,10.50
2014,11,02,15,23,10.50
2014,11,02,15,24,10.50
2014,11,02,15,25,10.50
2014,11,02,15,26,10.50
2014,11,02,15,27,10.50
2014,11,02,15,28,10.50
2014,11,02,15,29,10.50
2014,11,02,15,30,10.40
2014,11,02,15,31,10.40
2014,11,02,15,32,10.40
2014,11,02,15,33,10.30
2014,11,02,15,34,10.30
2014,11,02,15,35,10.30
2014,11,02,15,36,10.30
2014,11,02,15,37,10.30
2014,11,02,15,38,10.30
2014,11,02,15,39,10.30
2014,11,02,15,40,10.30
2014,11,02,15,41,10.30
2014,11,02,15,42,10.20
2014,11,02,15,43,10.20
2014,11,02,15,44,10.20
2014,11,02,15,45,10.20
2014,11,02,15,46,10.20
2014,11,02,15,47,10.20
2014,11,02,15,48,10.20
2014,11,02,15,49,10.10
2014,11,02,15,50,10.10
2014,11,02,15,51,10.10
2014,11,02,15,52,10.10
2014,11,02,15,53,10.10
2014,11,02,15,54,10.10
2014,11,02,15,55,10.10
2014,11,02,15,56,10.00
2014,11,02,15,57,10.00
2014,11,02,15,58,10.00
2014,11,02,15,59,10.00
2014,11,02,16,00,10.00
2014,11,02,16,01,10.00
2014,11,02,16,02,10.00
2014,11,02,16,03,10.00
2014,11,02,16,04,10.00
2014,11,02,16,05,10.00
2014,11,02,16,06,10.00
2014,11,02,16,07,10.00
2014,11,02,16,08,10.00
2014,11,02,16,09,10.00
2014,11,02,16,10,10.00
2014,11,02,16,11,10.00
2014,11,02,16,12,10.00
2014,11,02,16,13,10.00
2014,11,02,16,14,10.00
2014,11,02,16,15,10.00
2014,11,02,16,16,10.00
2014,11,02,16,17,10.00
2014,11,02,16,18,10.00
2014,11,02,16,19,10.00
2014,11,02,16,20,10.00
2014,11,02,16,21,10.00
2014,11,02,16,22,10.00
2014,11,02,16,23,10.00
2014,11,02,16,24,10.00
2014,11,02,16,25,10.00
2014,11,02,16,26,9.90
2014,11,02,16,27,9.90
2014,11,02,16,28,9.90
2014,11,02,16,29,10.00
2014,11,02,16,30,10.00
2014,11,02,16,31,9.90
2014,11,02,16,32,9.90
2014,11,02,16,33,9.90
2014,11,02,16,34,9.90
2014,11,02,16,35,9.90
2014,11,02,16,36,9.90
2014,11,02,16,37,9.90
2014,11,02,16,38,9.90
2014,11,02,16,39,9.90
2014,11,02,16,40,9.90
2014,11,02,16,41,9.90
2014,11,02,16,42,9.90
2014,11,02,16,43,9.90
2014,11,02,16,44,9.90
2014,11,02,16,45,9.90
2014,11,02,16,46,9.90
2014,11,02,16,47,9.90
2014,11,02,16,48,9.90
2014,11,02,16,49,9.90
2014,11,02,16,50,9.90
2014,11,02,16,51,9.90
2014,11,02,16,52,9.90
2014,11,02,16,53,9.90
2014,11,02,16,54,9.90
2014,11,02,16,55,9.90
2014,11,02,16,56,9.90
2014,11,02,16,57,9.90
2014,11,02,16,58,9.80
2014,11,02,16,59,9.90
2014,11,02,17,00,9.90
2014,11,02,17,01,9.90
2014,11,02,17,02,9.90
2014,11,02,17,03,9.90
2014,11,02,17,04,9.90
2014,11,02,17,05,9.90
2014,11,02,17,06,9.90
2014,11,02,17,07,9.90
2014,11,02,17,08,9.90
2014,11,02,17,09,9.90
2014,11,02,17,10,9.90
2014,11,02,17,11,9.90
2014,11,02,17,12,9.90
2014,11,02,17,13,9.90
2014,11,02,17,14,9.90
2014,11,02,17,15,9.90
2014,11,02,17,16,9.80
2014,11,02,17,17,9.80
2014,11,02,17,18,9.80
2014,11,02,17,19,9.80
2014,11,02,17,20,9.80
2014,11,02,17,21,9.80
2014,11,02,17,22,9.80
2014,11,02,17,23,9.80
2014,11,02,17,24,9.80
2014,11,02,17,25,9.80
2014,11,02,17,26,9.80
2014,11,02,17,27,9.80
2014,11,02,17,28,9.80
2014,11,02,17,29,9.80
2014,11,02,17,30,9.80
2014,11,02,17,31,9.80
2014,11,02,17,32,9.80
2014,11,02,17,33,9.80
2014,11,02,17,34,9.80
2014,11,02,17,35,9.80
2014,11,02,17,36,9.80
2014,11,02,17,37,9.80
2014,11,02,17,38,9.80
2014,11,02,17,39,9.80
2014,11,02,17,40,9.80
2014,11,02,17,41,9.80
2014,11,02,17,42,9.80
2014,11,02,17,43,9.80
2014,11,02,17,44,9.80
2014,11,02,17,45,9.90
2014,11,02,17,46,9.90
2014,11,02,17,47,9.90
2014,11,02,17,48,9.90
2014,11,02,17,49,9.90
2014,11,02,17,50,9.90
2014,11,02,17,51,9.90
2014,11,02,17,52,9.90
2014,11,02,17,53,9.90
2014,11,02,17,54,9.90
2014,11,02,17,55,9.90
2014,11,02,17,56,9.90
2014,11,02,17,57,9.90
2014,11,02,17,58,9.90
2014,11,02,17,59,9.90
2014,11,02,18,00,9.90
2014,11,02,18,01,9.90
2014,11,02,18,02,9.90
2014,11,02,18,03,9.90
2014,11,02,18,04,9.90
2014,11,02,18,05,9.90
2014,11,02,18,06,9.90
2014,11,02,18,07,9.90
2014,11,02,18,08,9.90
2014,11,02,18,09,9.90
2014,11,02,18,10,9.90
2014,11,02,18,11,9.90
2014,11,02,18,12,9.90
2014,11,02,18,13,9.90
2014,11,02,18,14,9.90
2014,11,02,18,15,9.90
2014,11,02,18,16,9.90
2014,11,02,18,17,9.90